Regional Weather Roundup
Issued by NWS Binghamton, NY

Home | Current Version | Previous Version | Text Only | Print | Product List | Glossary On
Versions: 1 2 3 4 5 6 7 8 9 10 11 12 13 14 15 16 17 18 19 20 21 22 23 24 25 26 27 28 29 30 31 32 33 34 35 36 37 38 39 40 41 42 43 44 45 46 47 48 49 50
000
ASUS41 KBGM 040010
RWRBGM
RWRBGM
BINGHAMTON REGIONAL WEATHER ROUNDUP
NATIONAL WEATHER SERVICE BINGHAMTON NY
800 PM EDT FRI JUL 03 2015

Note: "fair" indicates few or no clouds below 12,000 feet with no
significant weather and/or obstructions to visibility.

* = Station(s) that does not report precipitation, such as rain,
snow, etc, also no thunder or fog.

!NYZ009-015>018-022>025-036-037-044>046-055>057-062-040100
...CENTRAL NEW YORK...

CITY           SKY/WX    TMP DP  RH WIND       PRES   REMARKS
BINGHAMTON     MOCLDY    69  53  56 E5        29.97S
CORTLAND       FAIR      72  54  53 CALM      29.98R
DANSVILLE      MOCLDY    74  57  55 NW5       29.92S
ELMIRA         MOCLDY    71  62  73 CALM      29.92F
ITHACA         MOCLDY    69  56  63 E5        29.96F
MONTICELLO     CLOUDY    70  54  56 SE3       30.00S
NORWICH        CLEAR     64  55  72 CALM      29.98R
PENN YAN       MOCLDY    71  56  58 CALM      29.94S
ROME           PTCLDY    68  54  60 NE3       29.96S
SIDNEY         CLEAR     68  63  83 CALM      29.98R
SYRACUSE       CLOUDY    71  54  54 E3        29.95R
$$

!PAZ038>040-043-044-047-048-072-040100
...NORTHEAST PENNSYLVANIA...

CITY           SKY/WX    TMP DP  RH WIND       PRES   REMARKS
HAZLETON       CLOUDY    70  59  68 CALM      30.02S
SCRANTON       CLOUDY    75  59  57 VRB6      29.95S
TOWANDA*       CLEAR     73  61  64 MISG      29.95R
$$
&&
KEY
WCI = WIND CHILL INDEX
VSB = VISIBILITY
HX  = HEAT INDEX
$$


USA.gov is the U.S. government's official web portal to all federal, state and local government web resources and services.